DELTA 1 DEB, 42082

Orbit data source: Space-Track

DELTA 1 DEB, 42082 is space debris in SSO originally from a launch on Sun, 15 Dec 1968 UTC launched from the Air Force Western Test Range (AFWTR). Debris objects in space refer to the collection of defunct objects orbiting the Earth. Examples of debris include non-operational satellites, rocket bodies, and fragments generated from explosions, collisions, or faulty payload assembly.

Loading next visibility...
Identifier
42082, 1968-114J
Orbit
SSO
Country
Flag of USUS
Related business
Manufacturer
Aerojet
Mission
Spacecraft
Bus & Motor
Unknown
Mass
Unknown
Launch date (UTC)
1968-12-15 (57 years ago)
Launch vehicle
Unknown
Launch site
Air Force Western Test Range (AFWTR)
Object type
Payload
Rocket body
Debris
Shape & HBR
Unknown shape, 0.2 m
Radar Cross Section
Small (<0.1 m²)

Expand to show TLE details & history
Last TLE update: 1 day ago

TLE from 1 day ago
0 DELTA 1 DEB
1 42082U 68114J   26036.35026677  .00000044  00000-0  63031-3 0  9993
2 42082 101.9593 346.5713 0086186 196.7823 316.3967 12.42794204554037
Epoch: 2026-02-05T08:24Z
TLE epoch observation values (Epoch: 2026-02-05T08:24:23.048Z)
Latitude
26.89893°
Longitude
-88.89039°
Altitude
1,448.889 km
Speed
7.162 km/s
True Right ascension
11h 30m 50s
True Declination
26° 46' 22"
Sunlit
Object was in full shadow at epoch
Visualization orbit readout
Latitude
Unknown
Longitude
Unknown
Altitude
Unknown
Speed
Unknown
Apparent Right ascension
Unknown
Apparent Declination
Unknown
Sunlit
N/A
Visualization observer readout
Local Sidereal Time
15:02:47
Azimuth
Unknown
Elevation
Unknown
Doppler factor
Unknown
Orbital elements
Apogee altitude
1,560.181 km
Perigee altitude
1,424.516 km
Semi-major axis
7,870.486 km
Eccentricity
0.00862
Inclination
101.9593°
RAAN
346.5713°
Arg. of periapsis
196.7823°
True anomaly
315.71024°
Mean anomaly
316.3967°
Eccentric anomaly
316.05401°
Mean motion
3.10843 °/min
Orbital period
115.81 mins
BSTAR
0.00063031
Loading maneuver chart data...
Computing Atmospheric mass density...
Loading historical data...
Loading historical data...
Loading historical data...
Loading historical data...
Loading historical data...
Loading historical data...
Loading historical data...

Documentation

Showing up to 5 results
|